Погода в Сяогани

Китай     30°55′30″N   113°54′42″E
темп.,
°C
ветер,
м/с
пор.,
м/с
влажн.,
%
обл.,
%
осадки,
мм/ч
давл.,
гПа
погр.,
м
12 апреля, пн
пн1223:00+13всв1293100 0.3 102092
02:00+13ссв129378 0.4 101864
05:00+13ссв1194100 0.0 101758
08:00+14ссз2391100 0.0 1018215
11:00+15ссз2284100 0.6 1019469
14:00+18з1271100 1.1 1017863
17:00+19юз227089 0.1 1016649
20:00+16ююз3488100 0.1 101777
13 апреля, вт
вт1323:00+14зюз22915 0.0 101915
02:00+13ююз11945 0.0 101811
05:00+13в0093100 0.0 101710
08:00+15всв1187100 0.0 1019161
11:00+19ссв227090 0.0 1019679
14:00+23св235299 0.1 10171812
17:00+20ю2472100 0.1 1016136
20:00+17юз2284100 0.1 101851
14 апреля, ср
ср1423:00+16сз228877 0.0 102025
02:00+15с3588100 0.0 1019109
05:00+15ссз1186100 0.0 101925
08:00+16с4585100 0.0 1020235
11:00+20ссв3470100 0.0 1020817
14:00+20ссв3369100 0.1 1017877
17:00+19ссв126799 0.0 1016818
20:00+17ссв117986 0.0 101719
15 апреля, чт
чт1523:00+17ююз128599 0.1 1018114
02:00+16ююв228394 0.1 101678
05:00+15юв23839 0.0 101589
08:00+16юв2376100 0.0 1017261
11:00+20ю2263100 0.0 1017888
14:00+22ю2256100 0.0 10151422
17:00+22ююз2259100 0.0 1014972
20:00+19ю12715 0.0 101611
16 апреля, пт
пт1623:00+17ююз22785 0.0 101722
02:00+16зсз228761 0.0 101613
05:00+15з119099 0.0 101611
08:00+18сз118188 0.0 1017191
11:00+22зюз1164100 0.0 1018835
14:00+24з114997 0.0 10161414
17:00+25сз224399 0.0 10151544
20:00+21сз2250100 0.0 101717